Location: Calvera
(42.3882°N, 0.6137°E)
Time: 19:13:19
(UTC+00:00)

TELKOM 3 - Pass Details

Date: 28 October 2020
Orbit: 227 x 740 km, 49.9° (Epoch: 23 November)

Event Time Altitude Azimuth Distance (km) Brightness Sun altitude
Exits shadow 03:37:58 12° 72° (ENE) 1,389 7.2 -31.5°
Drops below altitude 10° 03:38:19 10° 70° (ENE) 1,528 7.4 -31.5°
Enters shadow 04:39:50 -67° 243° (WSW) 12,172 11.1 -20.2°
Maximum altitude 05:14:49 37° 344° (NNW) 712 4.7 -13.8°
